This demonstration page uses our WeatherBlox Daily Observations layout. Learn more.

Left ArrowRight Arrow

41.55636, -103.73856

Hourly Observations for March 26, 2021

Temp ( °F °C ) Dew Point ( °F °C ) Humidity (%) Winds ( mph kmh ) Pressure ( in mb ) Visibility ( mi km ) Precip ( " mm )
12:58 am 00:58 Mostly Cloudy 35 1.7 25 -3.8 67 67 WSW 3 6 29.77 1008 10 16 0.00 0.00
1:58 am 01:58 Mostly Cloudy 35 1.9 26 -3.4 68 68 N 7 11 29.74 1007 10 16 0.00 0.00
2:58 am 02:58 Cloudy 33 0.6 29 -1.9 84 84 W 9 15 29.74 1007 10 16 0.00 0.00
3:58 am 03:58 Cloudy 33 0.6 30 -1 89 89 WNW 9 15 29.72 1007 10 16 0.00 0.00
4:58 am 04:58 Mostly Cloudy 33 0.7 28 -2.4 80 80 N 7 11 29.74 1007 10 16 0.00 0.00
5:58 am 05:58 Mostly Cloudy 30 -0.9 26 -3.5 83 83 NNW 5 7 29.79 1009 10 16 0.00 0.00
6:58 am 06:58 Mostly Cloudy 33 0.6 27 -2.6 79 79 N 7 11 29.78 1009 10 16 0.00 0.00
7:58 am 07:58 Mostly Cloudy 32 0 27 -2.8 82 82 NNW 5 7 29.82 1010 10 16 0.00 0.00
8:58 am 08:58 Mostly Cloudy 35 1.5 29 -1.6 80 80 NNW 8 13 29.85 1011 10 16 0.00 0.00
9:58 am 09:58 Mostly Cloudy 35 1.6 30 -1 83 83 NW 13 20 29.85 1011 10 16 0.00 0.00
10:58 am 10:58 Mostly Cloudy 35 1.9 30 -1.3 80 80 NNW 14 22 29.85 1011 10 16 0.00 0.00
11:58 am 11:58 Cloudy with Light Rain/Snow 35 1.7 30 -0.9 83 83 NNE 12 19 29.86 1011 3 4 0.00 0.00
12:58 pm 12:58 Cloudy with Light Snow 33 0.6 30 -0.9 90 90 NNE 7 11 29.89 1012 1 2 0.02 0.51
1:58 pm 13:58 Cloudy with Light Snow 33 0.4 31 -0.7 92 92 N 12 19 29.89 1012 2 2 0.02 0.51
2:58 pm 14:58 Mostly Cloudy with Light Rain/Snow 35 1.6 32 0.1 90 90 N 13 20 29.88 1012 10 16 0.01 0.25
3:58 pm 15:58 Mostly Cloudy 36 2.3 32 0 85 85 NNE 7 11 29.89 1012 10 16 0.00 0.00
4:58 pm 16:58 Mostly Cloudy with Fog 34 0.9 32 -0.1 93 93 ENE 8 13 29.91 1013 0 0 0.00 0.00
5:58 pm 17:58 Cloudy 34 0.9 32 0 94 94 ENE 3 6 29.95 1014 10 16 0.00 0.00
6:58 pm 18:58 Mostly Cloudy with Mist and Fog 33 0.6 31 -0.4 93 93 NE 3 6 29.96 1015 1 1 0.00 0.00
7:58 pm 19:58 Mostly Cloudy 33 0.5 31 -0.5 93 93 NW 3 6 29.98 1015 10 16 0.00 0.00
8:58 pm 20:58 Mostly Cloudy 32 -0.1 30 -1 94 94 W 7 11 30.00 1016 10 16 0.00 0.00
9:58 pm 21:58 Clear with Mist and Fog 30 -0.9 29 -1.5 96 96 W 6 9 30.03 1017 6 10 0.00 0.00
10:58 pm 22:58 Mostly Clear 30 -1 29 -1.9 94 94 W 7 11 30.04 1017 7 11 0.00 0.00
11:58 pm 23:58 Mostly Cloudy 29 -1.9 27 -2.9 93 93 W 12 19 30.04 1017 10 16 0.00 0.00

Powered by AerisWeather